Location: Dos Palmas
(32.4468°N, 116.8732°W)
Time: 16:24:54
(UTC+00:00)

Cosmos 1898 Rocket - Pass Details

Date: 20 June 2021
Orbit: 754 x 783 km, 74.0° (Epoch: 26 July)

Event Time Altitude Azimuth Distance (km) Brightness Sun altitude
Rises 08:51:17 0° 345° (NNW) 3,232 7.5 -32.2°
Reaches altitude 10° 08:53:40 10° 347° (NNW) 2,298 6.6 -32.0°
Enters shadow 08:57:19 46° 357° (N) 1,017 4.4 -31.8°
